PRIVATE WETTERSTATION BILLIGHEIM-ALLFELD                       ZURCK
Wetterdaten: Sonntag, 17.08.2014
Datum Zeit Temp. A. Temp. A. min Temp. A. max Feuchte A. Luftdruck Regen Wind Richtung Richtung Sonnenschein ET Solar Taupunkt Windchill Windben Empfang
17.08.2014 00:00 12,7 C 12,6 C 12,7 C 87 % 1019,4 hPa 0,0 l/m 1,9 km/h (1 Bft) SO 141 0 min 0,000 mm 0 W/m 10,6 C 12,7 C 8,0 km/h (2 Bft) 100 %
17.08.2014 00:10 12,7 C 12,6 C 12,7 C 87 % 1019,5 hPa 0,0 l/m 1,3 km/h (1 Bft) SO 142 0 min 0,000 mm 0 W/m 10,6 C 12,7 C 6,4 km/h (2 Bft) 99 %
17.08.2014 00:20 12,7 C 12,7 C 12,7 C 87 % 1019,4 hPa 0,0 l/m 3,0 km/h (1 Bft) SO 129 0 min 0,000 mm 0 W/m 10,6 C 12,7 C 8,0 km/h (2 Bft) 100 %
17.08.2014 00:30 12,7 C 12,7 C 12,7 C 87 % 1019,4 hPa 0,0 l/m 3,0 km/h (1 Bft) SO 140 0 min 0,000 mm 0 W/m 10,6 C 12,7 C 8,0 km/h (2 Bft) 100 %
17.08.2014 00:40 12,7 C 12,7 C 12,7 C 87 % 1019,3 hPa 0,0 l/m 1,7 km/h (1 Bft) S-SO 148 0 min 0,000 mm 0 W/m 10,6 C 12,7 C 8,0 km/h (2 Bft) 99 %
17.08.2014 00:50 12,7 C 12,7 C 12,7 C 88 % 1019,3 hPa 0,0 l/m 2,7 km/h (1 Bft) S-SO 147 0 min 0,000 mm 0 W/m 10,8 C 12,7 C 8,0 km/h (2 Bft) 100 %
17.08.2014 01:00 12,7 C 12,7 C 12,7 C 88 % 1019,2 hPa 0,0 l/m 1,9 km/h (1 Bft) S-SO 164 0 min 0,000 mm 0 W/m 10,8 C 12,7 C 6,4 km/h (2 Bft) 100 %
17.08.2014 01:10 12,7 C 12,7 C 12,7 C 88 % 1019,1 hPa 0,0 l/m 1,3 km/h (1 Bft) S-SO 163 0 min 0,000 mm 0 W/m 10,8 C 12,7 C 6,4 km/h (2 Bft) 100 %
17.08.2014 01:20 12,7 C 12,7 C 12,7 C 88 % 1019,0 hPa 0,0 l/m 1,8 km/h (1 Bft) S-SO 155 0 min 0,000 mm 0 W/m 10,8 C 12,7 C 6,4 km/h (2 Bft) 100 %
17.08.2014 01:30 12,6 C 12,6 C 12,7 C 88 % 1019,0 hPa 0,0 l/m 2,9 km/h (1 Bft) S-SO 149 0 min 0,000 mm 0 W/m 10,7 C 12,6 C 8,0 km/h (2 Bft) 99 %
17.08.2014 01:40 12,6 C 12,6 C 12,6 C 88 % 1018,9 hPa 0,0 l/m 2,1 km/h (1 Bft) S-SO 155 0 min 0,000 mm 0 W/m 10,7 C 12,6 C 6,4 km/h (2 Bft) 100 %
17.08.2014 01:50 12,6 C 12,6 C 12,6 C 88 % 1018,9 hPa 0,0 l/m 2,3 km/h (1 Bft) S-SO 155 0 min 0,000 mm 0 W/m 10,7 C 12,6 C 8,0 km/h (2 Bft) 100 %
17.08.2014 02:00 12,5 C 12,5 C 12,6 C 88 % 1018,8 hPa 0,0 l/m 1,3 km/h (1 Bft) S-SO 162 0 min 0,000 mm 0 W/m 10,6 C 12,5 C 6,4 km/h (2 Bft) 100 %
17.08.2014 02:10 12,4 C 12,4 C 12,5 C 88 % 1018,7 hPa 0,0 l/m 1,1 km/h (1 Bft) S-SO 159 0 min 0,000 mm 0 W/m 10,5 C 12,4 C 6,4 km/h (2 Bft) 100 %
17.08.2014 02:20 12,4 C 12,4 C 12,4 C 88 % 1018,6 hPa 0,0 l/m 2,5 km/h (1 Bft) S-SO 148 0 min 0,000 mm 0 W/m 10,5 C 12,4 C 6,4 km/h (2 Bft) 100 %
17.08.2014 02:30 12,3 C 12,3 C 12,4 C 88 % 1018,6 hPa 0,0 l/m 1,3 km/h (1 Bft) S-SO 154 0 min 0,000 mm 0 W/m 10,4 C 12,3 C 6,4 km/h (2 Bft) 100 %
17.08.2014 02:40 12,3 C 12,3 C 12,3 C 88 % 1018,5 hPa 0,0 l/m 1,5 km/h (1 Bft) S-SO 165 0 min 0,000 mm 0 W/m 10,4 C 12,3 C 6,4 km/h (2 Bft) 100 %
17.08.2014 02:50 12,3 C 12,3 C 12,3 C 88 % 1018,4 hPa 0,0 l/m 1,7 km/h (1 Bft) S 169 0 min 0,000 mm 0 W/m 10,4 C 12,3 C 6,4 km/h (2 Bft) 100 %
17.08.2014 03:00 12,3 C 12,3 C 12,3 C 88 % 1018,3 hPa 0,0 l/m 2,3 km/h (1 Bft) S-SO 159 0 min 0,000 mm 0 W/m 10,4 C 12,3 C 6,4 km/h (2 Bft) 100 %
17.08.2014 03:10 12,3 C 12,3 C 12,3 C 88 % 1018,3 hPa 0,0 l/m 3,8 km/h (1 Bft) S-SO 166 0 min 0,000 mm 0 W/m 10,4 C 12,3 C 8,0 km/h (2 Bft) 100 %
17.08.2014 03:20 12,3 C 12,3 C 12,3 C 88 % 1018,2 hPa 0,0 l/m 2,1 km/h (1 Bft) S-SO 158 0 min 0,000 mm 0 W/m 10,4 C 12,3 C 8,0 km/h (2 Bft) 99 %
17.08.2014 03:30 12,2 C 12,2 C 12,3 C 88 % 1018,3 hPa 0,0 l/m 2,6 km/h (1 Bft) S 169 0 min 0,000 mm 0 W/m 10,3 C 12,2 C 8,0 km/h (2 Bft) 100 %
17.08.2014 03:40 12,2 C 12,2 C 12,2 C 88 % 1018,1 hPa 0,0 l/m 1,7 km/h (1 Bft) S 185 0 min 0,000 mm 0 W/m 10,3 C 12,2 C 6,4 km/h (2 Bft) 100 %
17.08.2014 03:50 12,1 C 12,1 C 12,2 C 88 % 1018,0 hPa 0,0 l/m 1,4 km/h (1 Bft) S 170 0 min 0,000 mm 0 W/m 10,2 C 12,1 C 6,4 km/h (2 Bft) 100 %
17.08.2014 04:00 12,0 C 12,0 C 12,1 C 88 % 1017,8 hPa 0,0 l/m 1,9 km/h (1 Bft) S 175 0 min 0,000 mm 0 W/m 10,1 C 12,0 C 8,0 km/h (2 Bft) 100 %
17.08.2014 04:10 11,9 C 11,9 C 12,0 C 88 % 1017,8 hPa 0,0 l/m 1,7 km/h (1 Bft) S 173 0 min 0,000 mm 0 W/m 10,0 C 11,9 C 8,0 km/h (2 Bft) 100 %
17.08.2014 04:20 11,8 C 11,8 C 11,9 C 88 % 1017,7 hPa 0,0 l/m 0,0 km/h (0 Bft) S 173 0 min 0,000 mm 0 W/m 9,9 C 11,8 C 1,6 km/h (1 Bft) 100 %
17.08.2014 04:30 11,7 C 11,7 C 11,8 C 88 % 1017,6 hPa 0,0 l/m 0,0 km/h (0 Bft) S 173 0 min 0,000 mm 0 W/m 9,8 C 11,7 C 1,6 km/h (1 Bft) 100 %
17.08.2014 04:40 11,7 C 11,7 C 11,7 C 88 % 1017,5 hPa 0,0 l/m 1,6 km/h (1 Bft) SO 144 0 min 0,000 mm 0 W/m 9,8 C 11,7 C 6,4 km/h (2 Bft) 100 %
17.08.2014 04:50 11,7 C 11,7 C 11,7 C 88 % 1017,5 hPa 0,0 l/m 1,5 km/h (1 Bft) SO 144 0 min 0,000 mm 0 W/m 9,8 C 11,7 C 8,0 km/h (2 Bft) 100 %
17.08.2014 05:00 11,7 C 11,7 C 11,7 C 88 % 1017,4 hPa 0,0 l/m 1,6 km/h (1 Bft) SO 144 0 min 0,000 mm 0 W/m 9,8 C 11,7 C 6,4 km/h (2 Bft) 91 %
17.08.2014 05:10 11,7 C 11,7 C 11,7 C 88 % 1017,4 hPa 0,0 l/m 0,6 km/h (0 Bft) SO 144 0 min 0,000 mm 0 W/m 9,8 C 11,7 C 6,4 km/h (2 Bft) 100 %
17.08.2014 05:20 11,7 C 11,7 C 11,7 C 88 % 1017,4 hPa 0,0 l/m 0,2 km/h (0 Bft) SO 145 0 min 0,000 mm 0 W/m 9,8 C 11,7 C 4,8 km/h (1 Bft) 100 %
17.08.2014 05:30 11,8 C 11,7 C 11,8 C 88 % 1017,2 hPa 0,0 l/m 0,0 km/h (0 Bft) SO 145 0 min 0,000 mm 0 W/m 9,9 C 11,8 C 1,6 km/h (1 Bft) 100 %
17.08.2014 05:40 11,8 C 11,8 C 11,8 C 88 % 1017,2 hPa 0,0 l/m 0,6 km/h (0 Bft) SO 145 0 min 0,000 mm 0 W/m 9,9 C 11,8 C 6,4 km/h (2 Bft) 100 %
17.08.2014 05:50 11,8 C 11,8 C 11,8 C 88 % 1017,3 hPa 0,0 l/m 0,0 km/h (0 Bft) SO 144 0 min 0,000 mm 0 W/m 9,9 C 11,8 C 1,6 km/h (1 Bft) 100 %
17.08.2014 06:00 11,8 C 11,8 C 11,8 C 88 % 1017,1 hPa 0,0 l/m 0,0 km/h (0 Bft) SO 145 0 min 0,000 mm 0 W/m 9,9 C 11,8 C 1,6 km/h (1 Bft) 100 %
17.08.2014 06:10 11,8 C 11,8 C 11,8 C 88 % 1017,2 hPa 0,0 l/m 0,0 km/h (0 Bft) SO 145 0 min 0,000 mm 0 W/m 9,9 C 11,8 C 1,6 km/h (1 Bft) 100 %
17.08.2014 06:20 11,8 C 11,8 C 11,9 C 88 % 1017,2 hPa 0,0 l/m 0,0 km/h (0 Bft) SO 145 0 min 0,000 mm 0 W/m 9,9 C 11,8 C 0,0 km/h (0 Bft) 100 %
17.08.2014 06:30 11,8 C 11,8 C 11,8 C 88 % 1017,2 hPa 0,0 l/m 0,0 km/h (0 Bft) SO 145 0 min 0,000 mm 0 W/m 9,9 C 11,8 C 1,6 km/h (1 Bft) 100 %
17.08.2014 06:40 11,9 C 11,8 C 11,9 C 88 % 1017,2 hPa 0,0 l/m 0,3 km/h (0 Bft) SO 145 0 min 0,000 mm 5 W/m 10,0 C 11,9 C 3,2 km/h (1 Bft) 100 %
17.08.2014 06:50 11,8 C 11,8 C 11,9 C 88 % 1017,2 hPa 0,0 l/m 0,2 km/h (0 Bft) SO 145 0 min 0,000 mm 5 W/m 9,9 C 11,8 C 4,8 km/h (1 Bft) 91 %
17.08.2014 07:00 11,8 C 11,8 C 11,8 C 88 % 1017,2 hPa 0,0 l/m 0,0 km/h (0 Bft) SO 145 0 min 0,000 mm 7 W/m 9,9 C 11,8 C 1,6 km/h (1 Bft) 100 %
17.08.2014 07:10 11,8 C 11,8 C 11,8 C 88 % 1017,1 hPa 0,0 l/m 0,0 km/h (0 Bft) SO 145 0 min 0,000 mm 9 W/m 9,9 C 11,8 C 1,6 km/h (1 Bft) 100 %
17.08.2014 07:20 11,9 C 11,8 C 11,9 C 88 % 1016,9 hPa 0,0 l/m 0,9 km/h (0 Bft) SO 144 0 min 0,000 mm 14 W/m 10,0 C 11,9 C 4,8 km/h (1 Bft) 100 %
17.08.2014 07:30 11,9 C 11,9 C 11,9 C 88 % 1016,8 hPa 0,0 l/m 0,8 km/h (0 Bft) SO 144 0 min 0,000 mm 25 W/m 10,0 C 11,9 C 4,8 km/h (1 Bft) 100 %
17.08.2014 07:40 11,9 C 11,9 C 11,9 C 88 % 1016,8 hPa 0,0 l/m 0,5 km/h (0 Bft) SO 143 0 min 0,000 mm 51 W/m 10,0 C 11,9 C 6,4 km/h (2 Bft) 100 %
17.08.2014 07:50 12,0 C 11,9 C 12,0 C 88 % 1016,7 hPa 0,0 l/m 1,1 km/h (1 Bft) SO 133 0 min 0,000 mm 63 W/m 10,1 C 12,0 C 6,4 km/h (2 Bft) 100 %
17.08.2014 08:00 12,2 C 12,0 C 12,2 C 88 % 1016,6 hPa 0,0 l/m 4,1 km/h (1 Bft) S-SO 158 0 min 0,025 mm 76 W/m 10,3 C 12,2 C 8,0 km/h (2 Bft) 100 %
17.08.2014 08:10 12,3 C 12,2 C 12,3 C 88 % 1016,5 hPa 0,0 l/m 4,3 km/h (1 Bft) S-SO 150 0 min 0,000 mm 67 W/m 10,4 C 12,3 C 9,7 km/h (2 Bft) 100 %
17.08.2014 08:20 12,3 C 12,3 C 12,3 C 88 % 1016,6 hPa 0,0 l/m 3,3 km/h (1 Bft) S-SO 153 0 min 0,000 mm 40 W/m 10,4 C 12,3 C 11,3 km/h (2 Bft) 100 %
17.08.2014 08:30 12,4 C 12,3 C 12,4 C 88 % 1016,5 hPa 0,0 l/m 2,7 km/h (1 Bft) S-SO 158 0 min 0,000 mm 60 W/m 10,5 C 12,4 C 9,7 km/h (2 Bft) 100 %
17.08.2014 08:40 13,1 C 12,4 C 13,1 C 87 % 1016,5 hPa 0,0 l/m 2,5 km/h (1 Bft) S-SO 164 10 min 0,000 mm 288 W/m 11,0 C 13,1 C 9,7 km/h (2 Bft) 100 %
17.08.2014 08:50 13,8 C 13,1 C 13,8 C 86 % 1016,4 hPa 0,0 l/m 4,2 km/h (1 Bft) S-SW 193 10 min 0,000 mm 318 W/m 11,5 C 13,8 C 11,3 km/h (2 Bft) 100 %
17.08.2014 09:00 14,5 C 13,8 C 14,5 C 84 % 1016,3 hPa 0,0 l/m 2,6 km/h (1 Bft) S 187 10 min 0,102 mm 359 W/m 11,8 C 14,5 C 14,5 km/h (3 Bft) 100 %
17.08.2014 09:10 15,0 C 14,5 C 15,0 C 83 % 1016,3 hPa 0,0 l/m 3,6 km/h (1 Bft) S-SW 208 10 min 0,000 mm 374 W/m 12,1 C 15,0 C 9,7 km/h (2 Bft) 98 %
17.08.2014 09:20 15,4 C 15,0 C 15,4 C 82 % 1016,3 hPa 0,0 l/m 5,3 km/h (1 Bft) S 178 10 min 0,000 mm 424 W/m 12,3 C 15,4 C 16,1 km/h (3 Bft) 100 %
17.08.2014 09:30 15,8 C 15,4 C 15,8 C 80 % 1016,3 hPa 0,0 l/m 7,3 km/h (2 Bft) S 191 10 min 0,000 mm 446 W/m 12,4 C 15,3 C 19,3 km/h (3 Bft) 100 %
17.08.2014 09:40 16,3 C 15,8 C 16,3 C 78 % 1016,2 hPa 0,0 l/m 8,0 km/h (2 Bft) S 183 10 min 0,000 mm 473 W/m 12,5 C 15,5 C 20,9 km/h (4 Bft) 100 %
17.08.2014 09:50 16,7 C 16,3 C 16,8 C 75 % 1016,2 hPa 0,0 l/m 9,5 km/h (2 Bft) S-SW 203 10 min 0,000 mm 504 W/m 12,2 C 15,2 C 20,9 km/h (4 Bft) 100 %
17.08.2014 10:00 17,0 C 16,7 C 17,0 C 76 % 1016,1 hPa 0,0 l/m 10,1 km/h (2 Bft) S-SW 200 10 min 0,254 mm 529 W/m 12,7 C 15,3 C 22,5 km/h (4 Bft) 99 %
17.08.2014 10:10 17,4 C 17,0 C 17,4 C 74 % 1016,0 hPa 0,0 l/m 8,7 km/h (2 Bft) SW 221 10 min 0,000 mm 554 W/m 12,7 C 16,3 C 22,5 km/h (4 Bft) 100 %
17.08.2014 10:20 18,0 C 17,4 C 18,0 C 74 % 1015,9 hPa 0,0 l/m 6,3 km/h (2 Bft) S-SW 204 10 min 0,000 mm 578 W/m 13,3 C 18,0 C 22,5 km/h (4 Bft) 100 %
17.08.2014 10:30 18,1 C 18,0 C 18,1 C 73 % 1015,9 hPa 0,0 l/m 9,9 km/h (2 Bft) S-SW 211 10 min 0,000 mm 619 W/m 13,2 C 16,6 C 24,1 km/h (4 Bft) 100 %
17.08.2014 10:40 18,3 C 18,1 C 18,3 C 72 % 1015,8 hPa 0,0 l/m 10,2 km/h (2 Bft) W 264 10 min 0,000 mm 633 W/m 13,2 C 16,7 C 22,5 km/h (4 Bft) 99 %
17.08.2014 10:50 18,6 C 18,3 C 18,6 C 71 % 1015,7 hPa 0,0 l/m 11,2 km/h (2 Bft) SW 219 10 min 0,000 mm 715 W/m 13,2 C 16,7 C 22,5 km/h (4 Bft) 100 %
17.08.2014 11:00 19,0 C 18,6 C 19,0 C 68 % 1015,5 hPa 0,0 l/m 10,1 km/h (2 Bft) S 180 10 min 0,356 mm 687 W/m 13,0 C 17,5 C 27,4 km/h (4 Bft) 100 %
17.08.2014 11:10 19,3 C 19,0 C 19,3 C 66 % 1015,4 hPa 0,0 l/m 14,1 km/h (3 Bft) SW 229 10 min 0,000 mm 717 W/m 12,8 C 16,6 C 29,0 km/h (5 Bft) 100 %
17.08.2014 11:20 19,7 C 19,3 C 19,7 C 63 % 1015,4 hPa 0,0 l/m 11,5 km/h (2 Bft) W 264 10 min 0,000 mm 698 W/m 12,5 C 17,8 C 30,6 km/h (5 Bft) 100 %
17.08.2014 11:30 19,6 C 19,6 C 19,8 C 63 % 1015,2 hPa 0,0 l/m 17,5 km/h (3 Bft) S-SW 194 10 min 0,000 mm 717 W/m 12,4 C 16,2 C 33,8 km/h (5 Bft) 100 %
17.08.2014 11:40 19,4 C 19,4 C 19,6 C 62 % 1015,2 hPa 0,0 l/m 16,8 km/h (3 Bft) W-SW 257 10 min 0,000 mm 696 W/m 11,9 C 16,1 C 33,8 km/h (5 Bft) 100 %
17.08.2014 11:50 19,6 C 19,4 C 19,6 C 61 % 1015,2 hPa 0,0 l/m 18,5 km/h (3 Bft) W 260 10 min 0,000 mm 751 W/m 11,9 C 16,0 C 40,2 km/h (6 Bft) 100 %
17.08.2014 12:00 19,6 C 19,6 C 19,7 C 62 % 1014,9 hPa 0,0 l/m 18,9 km/h (3 Bft) S-SW 213 10 min 0,482 mm 888 W/m 12,1 C 15,9 C 33,8 km/h (5 Bft) 100 %
17.08.2014 12:10 19,9 C 19,6 C 19,9 C 64 % 1014,8 hPa 0,0 l/m 21,3 km/h (4 Bft) S-SW 209 10 min 0,000 mm 858 W/m 12,9 C 15,8 C 45,1 km/h (6 Bft) 100 %
17.08.2014 12:20 20,0 C 19,9 C 20,1 C 61 % 1014,8 hPa 0,0 l/m 20,8 km/h (4 Bft) S-SO 166 10 min 0,000 mm 907 W/m 12,2 C 16,1 C 37,0 km/h (5 Bft) 100 %
17.08.2014 12:30 19,9 C 19,9 C 20,1 C 61 % 1014,7 hPa 0,0 l/m 19,3 km/h (3 Bft) W-SW 244 10 min 0,000 mm 288 W/m 12,2 C 16,2 C 37,0 km/h (5 Bft) 100 %
17.08.2014 12:40 19,2 C 19,2 C 19,9 C 60 % 1014,7 hPa 0,0 l/m 15,1 km/h (3 Bft) S-SW 203 10 min 0,000 mm 232 W/m 11,2 C 16,3 C 32,2 km/h (5 Bft) 100 %
17.08.2014 12:50 18,6 C 18,6 C 19,2 C 63 % 1014,7 hPa 0,0 l/m 17,7 km/h (3 Bft) W 279 10 min 0,000 mm 227 W/m 11,4 C 14,9 C 32,2 km/h (5 Bft) 100 %
17.08.2014 13:00 18,6 C 18,5 C 18,6 C 62 % 1014,7 hPa 0,0 l/m 14,8 km/h (3 Bft) SW 223 10 min 0,381 mm 322 W/m 11,2 C 15,6 C 27,4 km/h (4 Bft) 100 %
17.08.2014 13:10 18,7 C 18,6 C 18,7 C 62 % 1014,6 hPa 0,0 l/m 14,8 km/h (3 Bft) W 265 10 min 0,000 mm 248 W/m 11,3 C 15,7 C 30,6 km/h (5 Bft) 100 %
17.08.2014 13:20 18,6 C 18,6 C 18,7 C 62 % 1014,5 hPa 0,0 l/m 12,6 km/h (3 Bft) SW 229 10 min 0,000 mm 257 W/m 11,2 C 16,2 C 27,4 km/h (4 Bft) 99 %
17.08.2014 13:30 18,7 C 18,6 C 18,7 C 66 % 1014,4 hPa 0,2 l/m 13,4 km/h (3 Bft) W-SW 247 10 min 0,000 mm 295 W/m 12,2 C 16,1 C 29,0 km/h (5 Bft) 100 %
17.08.2014 13:40 19,0 C 18,7 C 19,1 C 62 % 1014,1 hPa 0,0 l/m 15,7 km/h (3 Bft) W 274 10 min 0,000 mm 947 W/m 11,6 C 15,9 C 30,6 km/h (5 Bft) 100 %
17.08.2014 13:50 19,7 C 19,0 C 19,7 C 61 % 1014,1 hPa 0,0 l/m 17,9 km/h (3 Bft) S 186 10 min 0,000 mm 366 W/m 12,0 C 16,2 C 37,0 km/h (5 Bft) 100 %
17.08.2014 14:00 19,6 C 19,6 C 19,7 C 62 % 1013,9 hPa 0,0 l/m 16,3 km/h (3 Bft) W-SW 240 10 min 0,000 mm 258 W/m 12,1 C 16,5 C 33,8 km/h (5 Bft) 99 %
17.08.2014 14:10 18,9 C 18,9 C 19,6 C 62 % 1013,8 hPa 0,0 l/m 16,1 km/h (3 Bft) S-SW 199 0 min 0,330 mm 40 W/m 11,5 C 15,6 C 38,6 km/h (5 Bft) 100 %
17.08.2014 14:20 18,4 C 18,4 C 18,9 C 66 % 1013,7 hPa 0,0 l/m 15,3 km/h (3 Bft) SW 232 10 min 0,000 mm 265 W/m 11,9 C 15,2 C 32,2 km/h (5 Bft) 100 %
17.08.2014 14:30 19,2 C 18,4 C 19,2 C 67 % 1013,6 hPa 0,0 l/m 16,4 km/h (3 Bft) S-SW 212 10 min 0,000 mm 366 W/m 12,9 C 15,9 C 35,4 km/h (5 Bft) 100 %
17.08.2014 14:40 19,8 C 19,2 C 19,8 C 65 % 1013,5 hPa 0,0 l/m 16,2 km/h (3 Bft) SW 225 10 min 0,000 mm 951 W/m 13,0 C 16,7 C 32,2 km/h (5 Bft) 100 %
17.08.2014 14:50 20,0 C 19,8 C 20,1 C 64 % 1013,2 hPa 0,0 l/m 17,5 km/h (3 Bft) SW 225 10 min 0,000 mm 343 W/m 13,0 C 16,7 C 30,6 km/h (5 Bft) 100 %
17.08.2014 15:00 20,7 C 20,0 C 20,7 C 67 % 1012,9 hPa 0,0 l/m 11,1 km/h (2 Bft) S-SO 156 10 min 0,356 mm 919 W/m 14,3 C 19,1 C 25,7 km/h (4 Bft) 100 %
17.08.2014 15:10 20,8 C 20,7 C 20,8 C 61 % 1012,9 hPa 0,0 l/m 12,7 km/h (3 Bft) SW 236 10 min 0,000 mm 279 W/m 13,0 C 18,8 C 29,0 km/h (5 Bft) 99 %
17.08.2014 15:20 20,6 C 20,5 C 20,8 C 61 % 1012,7 hPa 0,0 l/m 19,5 km/h (3 Bft) S-SW 193 10 min 0,000 mm 867 W/m 12,8 C 17,1 C 32,2 km/h (5 Bft) 100 %
17.08.2014 15:30 20,6 C 20,6 C 20,7 C 58 % 1012,6 hPa 0,0 l/m 18,8 km/h (3 Bft) W-SW 250 10 min 0,000 mm 207 W/m 12,0 C 17,2 C 33,8 km/h (5 Bft) 100 %
17.08.2014 15:40 20,3 C 20,3 C 20,6 C 59 % 1012,4 hPa 0,0 l/m 19,0 km/h (3 Bft) W-SW 248 10 min 0,000 mm 631 W/m 12,0 C 16,8 C 38,6 km/h (5 Bft) 100 %
17.08.2014 15:50 20,4 C 20,3 C 20,4 C 58 % 1012,3 hPa 0,0 l/m 13,1 km/h (3 Bft) W-SW 240 10 min 0,000 mm 156 W/m 11,9 C 18,2 C 27,4 km/h (4 Bft) 100 %
17.08.2014 16:00 20,2 C 20,2 C 20,4 C 59 % 1012,2 hPa 0,0 l/m 18,9 km/h (3 Bft) SW 236 10 min 0,356 mm 193 W/m 11,9 C 16,7 C 35,4 km/h (5 Bft) 100 %
17.08.2014 16:10 20,3 C 20,2 C 20,3 C 56 % 1012,2 hPa 0,0 l/m 20,5 km/h (4 Bft) S-SW 211 10 min 0,000 mm 258 W/m 11,2 C 16,5 C 33,8 km/h (5 Bft) 100 %
17.08.2014 16:20 20,5 C 20,3 C 20,5 C 59 % 1012,2 hPa 0,0 l/m 19,2 km/h (3 Bft) S-SW 198 10 min 0,000 mm 276 W/m 12,2 C 17,0 C 33,8 km/h (5 Bft) 100 %
17.08.2014 16:30 20,6 C 20,5 C 20,6 C 58 % 1012,0 hPa 0,0 l/m 16,9 km/h (3 Bft) S-SW 213 0 min 0,000 mm 116 W/m 12,0 C 17,6 C 33,8 km/h (5 Bft) 99 %
17.08.2014 16:40 20,2 C 20,2 C 20,7 C 58 % 1012,0 hPa 0,0 l/m 18,5 km/h (3 Bft) S-SW 211 10 min 0,000 mm 153 W/m 11,7 C 16,7 C 35,4 km/h (5 Bft) 100 %
17.08.2014 16:50 19,9 C 19,9 C 20,2 C 58 % 1012,0 hPa 0,0 l/m 14,5 km/h (3 Bft) W-SW 246 10 min 0,000 mm 199 W/m 11,4 C 17,3 C 25,7 km/h (4 Bft) 100 %
17.08.2014 17:00 20,1 C 19,9 C 20,1 C 55 % 1012,0 hPa 0,0 l/m 18,4 km/h (3 Bft) W-SW 254 10 min 0,228 mm 172 W/m 10,8 C 16,6 C 37,0 km/h (5 Bft) 100 %
17.08.2014 17:10 20,0 C 19,9 C 20,1 C 57 % 1011,7 hPa 0,0 l/m 16,6 km/h (3 Bft) S-SW 210 0 min 0,000 mm 118 W/m 11,2 C 16,9 C 40,2 km/h (6 Bft) 100 %
17.08.2014 17:20 19,9 C 19,8 C 20,0 C 58 % 1011,8 hPa 0,0 l/m 16,3 km/h (3 Bft) SW 223 0 min 0,000 mm 109 W/m 11,4 C 16,8 C 35,4 km/h (5 Bft) 100 %
17.08.2014 17:30 19,7 C 19,7 C 19,9 C 58 % 1011,6 hPa 0,0 l/m 17,9 km/h (3 Bft) S-SW 196 0 min 0,000 mm 144 W/m 11,2 C 16,2 C 29,0 km/h (5 Bft) 100 %
17.08.2014 17:40 19,5 C 19,5 C 19,7 C 55 % 1011,6 hPa 0,0 l/m 17,3 km/h (3 Bft) S-SW 199 0 min 0,000 mm 132 W/m 10,2 C 16,1 C 35,4 km/h (5 Bft) 100 %
17.08.2014 17:50 19,4 C 19,4 C 19,5 C 56 % 1011,5 hPa 0,0 l/m 16,5 km/h (3 Bft) W-SW 254 0 min 0,000 mm 127 W/m 10,4 C 16,2 C 33,8 km/h (5 Bft) 100 %
17.08.2014 18:00 19,4 C 19,4 C 19,5 C 57 % 1011,4 hPa 0,0 l/m 14,9 km/h (3 Bft) SO 132 0 min 0,178 mm 105 W/m 10,7 C 16,5 C 35,4 km/h (5 Bft) 100 %
17.08.2014 18:10 19,3 C 19,3 C 19,4 C 56 % 1011,4 hPa 0,0 l/m 17,5 km/h (3 Bft) W-SW 252 0 min 0,000 mm 146 W/m 10,3 C 15,8 C 32,2 km/h (5 Bft) 100 %
17.08.2014 18:20 19,5 C 19,3 C 19,5 C 55 % 1011,4 hPa 0,0 l/m 16,0 km/h (3 Bft) NW 306 0 min 0,000 mm 74 W/m 10,2 C 16,4 C 29,0 km/h (5 Bft) 100 %
17.08.2014 18:30 19,4 C 19,4 C 19,6 C 55 % 1011,4 hPa 0,0 l/m 16,2 km/h (3 Bft) W-SW 243 0 min 0,000 mm 141 W/m 10,1 C 16,2 C 32,2 km/h (5 Bft) 99 %
17.08.2014 18:40 19,6 C 19,4 C 19,6 C 56 % 1011,4 hPa 0,0 l/m 14,7 km/h (3 Bft) W-SW 248 0 min 0,000 mm 95 W/m 10,6 C 16,8 C 32,2 km/h (5 Bft) 100 %
17.08.2014 18:50 19,4 C 19,4 C 19,6 C 56 % 1011,2 hPa 0,0 l/m 17,0 km/h (3 Bft) W-SW 247 0 min 0,000 mm 62 W/m 10,4 C 16,1 C 37,0 km/h (5 Bft) 100 %
17.08.2014 19:00 19,2 C 19,2 C 19,4 C 59 % 1011,2 hPa 0,0 l/m 15,9 km/h (3 Bft) SW 224 0 min 0,152 mm 67 W/m 11,0 C 16,1 C 29,0 km/h (5 Bft) 100 %
17.08.2014 19:10 19,1 C 19,1 C 19,2 C 58 % 1011,2 hPa 0,0 l/m 11,6 km/h (2 Bft) SW 231 0 min 0,000 mm 47 W/m 10,6 C 17,1 C 25,7 km/h (4 Bft) 100 %
17.08.2014 19:20 18,9 C 18,9 C 19,1 C 58 % 1011,1 hPa 0,0 l/m 11,4 km/h (2 Bft) W-SW 248 0 min 0,000 mm 39 W/m 10,5 C 17,0 C 27,4 km/h (4 Bft) 100 %
17.08.2014 19:30 18,7 C 18,7 C 18,9 C 60 % 1011,0 hPa 0,0 l/m 10,3 km/h (2 Bft) S-SW 213 0 min 0,000 mm 32 W/m 10,8 C 17,1 C 24,1 km/h (4 Bft) 100 %
17.08.2014 19:40 18,4 C 18,4 C 18,7 C 60 % 1010,9 hPa 0,0 l/m 7,2 km/h (2 Bft) S-SW 213 0 min 0,000 mm 37 W/m 10,5 C 18,0 C 20,9 km/h (4 Bft) 100 %
17.08.2014 19:50 18,3 C 18,3 C 18,4 C 60 % 1010,8 hPa 0,0 l/m 7,9 km/h (2 Bft) W-SW 257 0 min 0,000 mm 26 W/m 10,4 C 17,6 C 19,3 km/h (3 Bft) 99 %
17.08.2014 20:00 18,0 C 18,0 C 18,3 C 61 % 1010,8 hPa 0,0 l/m 6,7 km/h (2 Bft) SW 217 0 min 0,077 mm 28 W/m 10,4 C 17,9 C 22,5 km/h (4 Bft) 100 %
17.08.2014 20:10 17,8 C 17,8 C 18,0 C 62 % 1010,8 hPa 0,0 l/m 7,8 km/h (2 Bft) SW 219 0 min 0,000 mm 16 W/m 10,4 C 17,1 C 20,9 km/h (4 Bft) 99 %
17.08.2014 20:20 17,7 C 17,7 C 17,8 C 63 % 1010,7 hPa 0,0 l/m 4,7 km/h (1 Bft) SW 235 0 min 0,000 mm 9 W/m 10,6 C 17,7 C 17,7 km/h (3 Bft) 100 %
17.08.2014 20:30 17,6 C 17,6 C 17,7 C 63 % 1010,7 hPa 0,0 l/m 4,5 km/h (1 Bft) S-SW 195 0 min 0,000 mm 5 W/m 10,5 C 17,6 C 11,3 km/h (2 Bft) 100 %
17.08.2014 20:40 17,3 C 17,3 C 17,6 C 64 % 1010,6 hPa 0,0 l/m 3,8 km/h (1 Bft) S-SW 197 0 min 0,000 mm 0 W/m 10,4 C 17,3 C 11,3 km/h (2 Bft) 100 %
17.08.2014 20:50 17,2 C 17,2 C 17,3 C 64 % 1010,6 hPa 0,0 l/m 4,0 km/h (1 Bft) S-SW 207 0 min 0,000 mm 0 W/m 10,3 C 17,2 C 16,1 km/h (3 Bft) 100 %
17.08.2014 21:00 17,1 C 17,1 C 17,2 C 65 % 1010,7 hPa 0,0 l/m 6,1 km/h (2 Bft) SW 229 0 min 0,025 mm 0 W/m 10,5 C 17,1 C 16,1 km/h (3 Bft) 99 %
17.08.2014 21:10 17,1 C 17,1 C 17,1 C 65 % 1010,7 hPa 0,0 l/m 2,9 km/h (1 Bft) S-SW 205 0 min 0,000 mm 0 W/m 10,5 C 17,1 C 14,5 km/h (3 Bft) 100 %
17.08.2014 21:20 17,0 C 17,0 C 17,1 C 67 % 1010,6 hPa 0,0 l/m 2,3 km/h (1 Bft) S 175 0 min 0,000 mm 0 W/m 10,8 C 17,0 C 14,5 km/h (3 Bft) 100 %
17.08.2014 21:30 16,7 C 16,7 C 17,0 C 69 % 1010,7 hPa 0,0 l/m 1,3 km/h (1 Bft) S-SO 162 0 min 0,000 mm 0 W/m 11,0 C 16,7 C 8,0 km/h (2 Bft) 100 %
17.08.2014 21:40 16,6 C 16,6 C 16,7 C 69 % 1010,7 hPa 0,0 l/m 1,4 km/h (1 Bft) S 171 0 min 0,000 mm 0 W/m 10,9 C 16,6 C 6,4 km/h (2 Bft) 100 %
17.08.2014 21:50 16,5 C 16,5 C 16,6 C 70 % 1010,7 hPa 0,0 l/m 0,5 km/h (0 Bft) S-SO 161 0 min 0,000 mm 0 W/m 11,0 C 16,5 C 6,4 km/h (2 Bft) 100 %
17.08.2014 22:00 16,3 C 16,3 C 16,5 C 71 % 1010,6 hPa 0,0 l/m 1,2 km/h (1 Bft) S-SO 162 0 min 0,025 mm 0 W/m 11,0 C 16,3 C 8,0 km/h (2 Bft) 100 %
17.08.2014 22:10 16,2 C 16,2 C 16,3 C 72 % 1010,6 hPa 0,0 l/m 1,4 km/h (1 Bft) S 172 0 min 0,000 mm 0 W/m 11,1 C 16,2 C 8,0 km/h (2 Bft) 100 %
17.08.2014 22:20 16,1 C 16,1 C 16,2 C 73 % 1010,6 hPa 0,0 l/m 0,0 km/h (0 Bft) S-SO 158 0 min 0,000 mm 0 W/m 11,3 C 16,1 C 1,6 km/h (1 Bft) 100 %
17.08.2014 22:30 15,9 C 15,9 C 16,1 C 73 % 1010,5 hPa 0,0 l/m 2,5 km/h (1 Bft) S 172 0 min 0,000 mm 0 W/m 11,1 C 15,9 C 11,3 km/h (2 Bft) 100 %
17.08.2014 22:40 15,9 C 15,9 C 15,9 C 74 % 1010,5 hPa 0,0 l/m 0,8 km/h (0 Bft) S-SW 198 0 min 0,000 mm 0 W/m 11,3 C 15,9 C 6,4 km/h (2 Bft) 100 %
17.08.2014 22:50 15,9 C 15,9 C 15,9 C 75 % 1010,4 hPa 0,0 l/m 3,5 km/h (1 Bft) S 188 0 min 0,000 mm 0 W/m 11,5 C 15,9 C 9,7 km/h (2 Bft) 100 %
17.08.2014 23:00 15,9 C 15,9 C 15,9 C 75 % 1010,4 hPa 0,0 l/m 0,0 km/h (0 Bft) S 184 0 min 0,026 mm 0 W/m 11,5 C 15,9 C 1,6 km/h (1 Bft) 100 %
17.08.2014 23:10 15,8 C 15,8 C 15,9 C 76 % 1010,4 hPa 0,0 l/m 0,6 km/h (0 Bft) S 187 0 min 0,000 mm 0 W/m 11,6 C 15,8 C 4,8 km/h (1 Bft) 100 %
17.08.2014 23:20 15,7 C 15,7 C 15,8 C 75 % 1010,4 hPa 0,0 l/m 3,4 km/h (1 Bft) S-SW 206 0 min 0,000 mm 0 W/m 11,3 C 15,7 C 16,1 km/h (3 Bft) 100 %
17.08.2014 23:30 15,7 C 15,7 C 15,8 C 76 % 1010,3 hPa 0,0 l/m 2,2 km/h (1 Bft) S 177 0 min 0,000 mm 0 W/m 11,5 C 15,7 C 9,7 km/h (2 Bft) 100 %
17.08.2014 23:40 15,7 C 15,7 C 15,7 C 76 % 1010,2 hPa 0,0 l/m 3,9 km/h (1 Bft) S-SW 208 0 min 0,000 mm 0 W/m 11,5 C 15,7 C 12,9 km/h (3 Bft) 100 %
17.08.2014 23:50 15,7 C 15,7 C 15,7 C 75 % 1010,3 hPa 0,0 l/m 3,0 km/h (1 Bft) SW 217 0 min 0,000 mm 0 W/m 11,3 C 15,7 C 9,7 km/h (2 Bft) 100 %
_ Min-Zeit 04:30 04:30 04:40 17:00 23:40 - 04:20 - - - - - 04:30 04:30 06:20 06:50
Minimum _ 11,7 C 11,7 C 11,7 C 55 % 1010,2 hPa - 0,0 km/h (0 Bft) - - - - - 9,8 C 11,7 C 0,0 km/h (0 Bft) 91 %
_ Max-Zeit 15:10 15:10 15:10 00:50 00:10 13:30 12:10 - - 08:40 12:00 14:40 15:00 15:00 12:10 00:00
Maximum _ 20,8 C 20,7 C 20,8 C 88 % 1019,5 hPa 0,2 l/m 21,3 km/h
S-SW (4 Bft)
- - 10 min 0,482 mm 951 W/m 14,3 C 19,1 C 45,1 km/h
S (6 Bft)
100 %
Durchschnitt _ 16,1 C 16,0 C 16,1 C 74 % 1014,7 hPa #0,2 l/m 7,6 km/h (2 Bft) S-SW - #8:10 h #3,353 mm 304 W/m 11,1 C 14,9 C 17,8 km/h (3 Bft) 100 %
PRIVATE WETTERSTATION BILLIGHEIM-ALLFELD - www.neckar-odenwald-wetter.de - Holger Sonntag